This is the latest recevied weather packets stored in our database for station/object W8DRH-13. If no packets are shown the sender has not sent any weather packets the latest 10 day(s).
| Time | Temp. | Humidity | Pressure | Rain* | Wind** | Luminosity | Snow |
|---|---|---|---|---|---|---|---|
| 1777678285 | 5.56° C | 89% | 1012.4 hPa | 0 mm | - | 38 W/m² | - |
| 1777677981 | 5.56° C | 89% | 1012.5 hPa | 3.56 mm | - | 35 W/m² | - |
| 1777677679 | 5.56° C | 89% | 1012.5 hPa | 3.56 mm | - | 18 W/m² | - |
| 1777677376 | 6.11° C | 88% | 1012.6 hPa | 1.27 mm | - | 10 W/m² | - |
| 1777677074 | 6.11° C | 87% | 1012.5 hPa | 3.05 mm | - | 12 W/m² | - |
| 1777676773 | 6.11° C | 86% | 1012.6 hPa | 1.78 mm | - | 14 W/m² | - |
| 1777676470 | 6.11° C | 85% | 1012.5 hPa | 1.27 mm | - | 17 W/m² | - |
| 1777676168 | 7.22° C | 85% | 1012.5 hPa | 1.27 mm | - | 19 W/m² | - |
| 1777675864 | 7.22° C | 85% | 1012.4 hPa | 0 mm | - | 25 W/m² | - |
| 1777675561 | 7.22° C | 84% | 1012.5 hPa | 0 mm | - | 22 W/m² | - |
| 1777675258 | 7.22° C | 84% | 1012.6 hPa | 0 mm | - | 45 W/m² | - |
| 1777674954 | 7.22° C | 84% | 1012.5 hPa | 0 mm | - | 45 W/m² | - |
| 1777674651 | 7.22° C | 83% | 1012.5 hPa | 0 mm | - | 54 W/m² | - |
| 1777674358 | 7.78° C | 83% | 1012.4 hPa | 0 mm | - | 79 W/m² | - |
| 1777674045 | 7.78° C | 83% | 1012.5 hPa | 0 mm | - | 114 W/m² | - |
| 1777673740 | 7.78° C | 83% | 1012.3 hPa | 0 mm | - | 151 W/m² | - |
| 1777673438 | 7.78° C | 82% | 1012.5 hPa | 0 mm | - | 118 W/m² | - |
| 1777673136 | 7.22° C | 82% | 1012.5 hPa | 0 mm | - | 106 W/m² | - |
| 1777672832 | 7.22° C | 82% | 1012.5 hPa | 0 mm | - | 144 W/m² | - |
| 1777672529 | 7.22° C | 82% | 1012.4 hPa | 0 mm | - | 69 W/m² | - |
| 1777672224 | 7.78° C | 82% | 1012.2 hPa | 0 mm | - | 75 W/m² | - |
| 1777671920 | 7.78° C | 80% | 1012.2 hPa | 0 mm | - | 42 W/m² | - |
| 1777671616 | 8.33° C | 79% | 1011.9 hPa | 0 mm | - | 88 W/m² | - |
| 1777671313 | 8.89° C | 79% | 1011.8 hPa | 0 mm | - | 160 W/m² | - |
| 1777671009 | 8.89° C | 78% | 1011.9 hPa | 0 mm | - | 163 W/m² | - |
* Rain latest hour (hover to see other rain measurements)
** Current wind speed in m/s (hover to see current wind gust speed)